Date String (YYYY-MM-DD hh:mm:ss) UTC,Instrument flags,absolute air pressure of the measurement (hPa),sample flow rate (lpm),inlet stack bypass flow (lpm),air temperature of the measurement (°C),ambient temperature measured by the external sensor (°C),aerosol sample conditioner tube jacket temperature (°C),OPC LED temperature (°C),internal box temperature (°C),relative humidity of the measurement (%),span deviation,mass concentration of particles derived from Lorenz-Mie calculation of OPC scattering (μg/m³),mass concentration of particles derived from Lorenz-Mie calculation of OPC scattering (μg/m³),mass concentration of particles derived from Lorenz-Mie calculation of OPC scattering (μg/m³)
DateTimeUTC,F1_M11,P_M11,Q1_M11,Q2_M11,T1_M11,T2_M11,T3_M11,T4_M11,T5_M11,U1_M11,ZSPAN_M11,X0_M11,X2_M11,X1_M11
2023-11-04 23:00:00,SystemResetWarning,0832.7,5.01,000.00,027.6,026.0,000.0,035.8,029.1,12.7,0000.0,0008.04,0002.65,0001.85
2023-11-04 23:01:00,SystemResetWarning,0832.6,5.02,000.00,027.6,026.2,000.0,035.8,029.2,12.6,0000.0,0008.16,0002.67,0001.88
2023-11-04 23:02:00,SystemResetWarning,0832.5,5.00,000.00,027.7,026.4,000.0,035.9,029.2,12.7,0000.0,0008.38,0002.72,0001.92
2023-11-04 23:03:00,SystemResetWarning,0832.5,5.00,000.00,027.7,026.6,000.0,035.9,029.3,12.6,0000.0,0008.93,0002.78,0001.96
2023-11-04 23:04:00,SystemResetWarning,0832.5,5.00,000.00,027.7,026.7,000.0,035.9,029.3,12.7,0000.0,0009.03,0002.80,0001.99
2023-11-04 23:05:00,SystemResetWarning,0832.5,5.00,000.00,027.8,026.8,000.0,035.9,029.4,12.7,0000.0,0009.07,0002.82,0002.02
2023-11-04 23:06:00,SystemResetWarning,0832.5,4.99,000.00,027.8,027.0,000.0,035.9,029.5,12.6,0000.0,0009.65,0002.88,0002.04
2023-11-04 23:07:00,SystemResetWarning,0832.5,5.00,000.00,027.9,027.1,000.0,036.0,029.5,12.6,0000.0,0009.38,0002.88,0002.06
2023-11-04 23:08:00,SystemResetWarning,0832.5,5.00,000.00,027.9,027.1,000.0,036.0,029.6,12.4,0000.0,0009.33,0002.86,0002.05
2023-11-04 23:09:00,SystemResetWarning,0832.5,5.00,000.00,028.0,027.2,000.0,036.0,029.6,12.4,0000.0,0008.65,0002.80,0002.03
2023-11-04 23:10:00,SystemResetWarning,0832.5,5.00,000.00,028.0,027.3,000.0,036.1,029.7,12.3,0000.0,0008.36,0002.74,0002.02
2023-11-04 23:11:00,SystemResetWarning,0832.5,5.00,000.00,028.1,027.4,000.0,036.1,029.7,12.4,0000.0,0007.71,0002.72,0002.02
2023-11-04 23:12:00,SystemResetWarning,0832.5,5.00,000.00,028.1,027.3,000.0,036.1,029.7,12.4,0000.0,0007.97,0002.76,0002.00
2023-11-04 23:13:00,SystemResetWarning,0832.4,5.00,000.00,028.1,025.7,000.0,036.1,029.6,12.3,0000.0,0008.13,0002.75,0001.98
2023-11-04 23:14:00,SystemResetWarning,0832.4,5.00,000.00,028.0,023.7,000.0,036.1,029.2,12.6,0000.0,0007.83,0002.68,0001.94
2023-11-04 23:15:00,SystemResetWarning,0832.3,5.02,000.00,027.9,023.4,000.0,036.0,029.0,12.8,0000.0,0008.49,0002.69,0001.93
2023-11-04 23:16:00,SystemResetWarning,0832.3,5.00,000.00,027.7,023.8,000.0,036.0,028.6,12.8,0000.0,0008.84,0002.66,0001.90
2023-11-04 23:17:00,SystemResetWarning,0832.3,5.00,000.00,027.6,024.3,000.0,035.9,028.6,12.8,0000.0,0008.21,0002.58,0001.88
2023-11-04 23:18:00,SystemResetWarning,0832.3,4.98,000.00,027.5,024.8,000.0,035.9,028.7,12.9,0000.0,0008.34,0002.57,0001.86
2023-11-04 23:19:00,SystemResetWarning,0832.3,4.99,000.00,027.5,025.2,000.0,035.9,028.8,12.9,0000.0,0009.12,0002.54,0001.85
2023-11-04 23:20:00,SystemResetWarning,0832.3,5.01,000.00,027.5,025.5,000.0,035.9,028.9,12.9,0000.0,0009.22,0002.56,0001.83
2023-11-04 23:21:00,SystemResetWarning,0832.4,5.00,000.00,027.6,025.8,000.0,035.9,029.0,12.9,0000.0,0010.03,0002.60,0001.81
2023-11-04 23:22:00,SystemResetWarning,0832.4,4.99,000.00,027.6,026.1,000.0,035.9,029.1,12.9,0000.0,0010.70,0002.61,0001.78
2023-11-04 23:23:00,SystemResetWarning,0832.5,4.99,000.00,027.6,026.3,000.0,035.9,029.2,12.9,0000.0,0012.80,0002.61,0001.77
2023-11-04 23:24:00,SystemResetWarning,0832.5,5.01,000.00,027.7,026.5,000.0,035.9,029.3,12.8,0000.0,0012.96,0002.60,0001.75
2023-11-04 23:25:00,SystemResetWarning,0832.5,5.01,000.00,027.7,026.6,000.0,035.9,029.3,12.8,0000.0,0013.56,0002.57,0001.73
2023-11-04 23:26:00,SystemResetWarning,0832.5,5.00,000.00,027.8,026.8,000.0,035.9,029.4,12.8,0000.0,0013.61,0002.61,0001.73
2023-11-04 23:27:00,SystemResetWarning,0832.5,4.99,000.00,027.8,026.9,000.0,035.9,029.5,12.8,0000.0,0013.14,0002.66,0001.73
2023-11-04 23:28:00,SystemResetWarning,0832.4,4.99,000.00,027.9,027.0,000.0,036.0,029.5,12.7,0000.0,0012.95,0002.77,0001.74
2023-11-04 23:29:00,SystemResetWarning,0832.4,5.00,000.00,027.9,027.1,000.0,036.0,029.6,12.6,0000.0,0012.91,0002.80,0001.74
2023-11-04 23:30:00,SystemResetWarning,0832.4,5.00,000.00,028.0,027.2,000.0,036.0,029.6,12.5,0000.0,0012.78,0002.76,0001.72
2023-11-04 23:31:00,SystemResetWarning,0832.4,5.00,000.00,028.0,027.3,000.0,036.1,029.7,12.5,0000.0,0013.01,0002.72,0001.70
2023-11-04 23:32:00,SystemResetWarning,0832.4,5.00,000.00,028.1,027.4,000.0,036.1,029.7,12.4,0000.0,0012.76,0002.70,0001.70
2023-11-04 23:33:00,SystemResetWarning,0832.5,5.00,000.00,028.1,027.2,000.0,036.1,029.8,12.4,0000.0,0011.79,0002.63,0001.70
2023-11-04 23:34:00,SystemResetWarning,0832.4,5.00,000.00,028.1,025.3,000.0,036.1,029.5,12.4,0000.0,0010.42,0002.57,0001.68
2023-11-04 23:35:00,SystemResetWarning,0832.3,5.00,000.00,027.9,023.5,000.0,036.1,029.1,12.5,0000.0,0009.95,0002.52,0001.65
2023-11-04 23:36:00,SystemResetWarning,0832.3,5.00,000.00,027.8,023.4,000.0,036.0,028.9,12.5,0000.0,0009.62,0002.48,0001.64
2023-11-04 23:37:00,SystemResetWarning,0832.4,5.02,000.00,027.6,023.9,000.0,036.0,028.6,12.6,0000.0,0009.60,0002.45,0001.60
2023-11-04 23:38:00,SystemResetWarning,0832.4,5.00,000.00,027.5,024.4,000.0,035.9,028.6,12.7,0000.0,0009.57,0002.41,0001.57
2023-11-04 23:39:00,SystemResetWarning,0832.5,5.00,000.00,027.5,024.8,000.0,035.9,028.7,12.7,0000.0,0010.78,0002.31,0001.55
2023-11-04 23:40:00,SystemResetWarning,0832.5,5.00,000.00,027.5,025.2,000.0,035.9,028.8,12.7,0000.0,0011.77,0002.28,0001.54
2023-11-04 23:41:00,SystemResetWarning,0832.4,5.00,000.00,027.5,025.6,000.0,035.9,028.9,12.7,0000.0,0011.71,0002.30,0001.53
2023-11-04 23:42:00,SystemResetWarning,0832.5,5.00,000.00,027.6,025.9,000.0,035.8,029.0,12.7,0000.0,0010.76,0002.34,0001.53
2023-11-04 23:43:00,SystemResetWarning,0832.5,5.01,000.00,027.6,026.1,000.0,035.8,029.1,12.6,0000.0,0011.15,0002.35,0001.53
2023-11-04 23:44:00,SystemResetWarning,0832.5,5.00,000.00,027.6,026.3,000.0,035.8,029.2,12.6,0000.0,0011.80,0002.32,0001.52
2023-11-04 23:45:00,SystemResetWarning,0832.5,4.99,000.00,027.7,026.5,000.0,035.9,029.3,12.6,0000.0,0011.69,0002.30,0001.52
2023-11-04 23:46:00,SystemResetWarning,0832.5,5.00,000.00,027.7,026.7,000.0,035.9,029.4,12.6,0000.0,0010.62,0002.27,0001.53
2023-11-04 23:47:00,SystemResetWarning,0832.5,5.00,000.00,027.8,026.8,000.0,035.9,029.4,12.5,0000.0,0010.77,0002.28,0001.53
2023-11-04 23:48:00,SystemResetWarning,0832.5,5.00,000.00,027.8,026.9,000.0,035.9,029.5,12.5,0000.0,0010.36,0002.30,0001.54
2023-11-04 23:49:00,SystemResetWarning,0832.5,5.01,000.00,027.9,027.0,000.0,036.0,029.5,12.5,0000.0,0010.37,0002.27,0001.55
2023-11-04 23:50:00,SystemResetWarning,0832.4,5.00,000.00,027.9,027.1,000.0,036.0,029.6,12.4,0000.0,0009.02,0002.28,0001.54
2023-11-04 23:51:00,SystemResetWarning,0832.4,5.01,000.00,028.0,027.2,000.0,036.0,029.6,12.4,0000.0,0008.18,0002.24,0001.54
2023-11-04 23:52:00,SystemResetWarning,0832.4,5.00,000.00,028.0,027.3,000.0,036.1,029.7,12.4,0000.0,0008.08,0002.24,0001.54
2023-11-04 23:53:00,SystemResetWarning,0832.4,5.00,000.00,028.1,027.3,000.0,036.1,029.7,12.4,0000.0,0008.06,0002.24,0001.55
2023-11-04 23:54:00,SystemResetWarning,0832.3,4.99,000.00,028.1,027.4,000.0,036.1,029.8,12.3,0000.0,0007.65,0002.21,0001.54
2023-11-04 23:55:00,SystemResetWarning,0832.3,5.00,000.00,028.2,027.5,000.0,036.2,029.8,12.4,0000.0,0007.32,0002.29,0001.54
2023-11-04 23:56:00,SystemResetWarning,0832.3,5.01,000.00,028.2,027.2,000.0,036.2,029.8,12.4,0000.0,0008.53,0002.34,0001.53
2023-11-04 23:57:00,SystemResetWarning,0832.3,5.00,000.00,028.2,025.0,000.0,036.2,029.5,12.5,0000.0,0008.70,0002.35,0001.52
2023-11-04 23:58:00,SystemResetWarning,0832.2,5.00,000.00,028.0,023.3,000.0,036.1,029.1,12.7,0000.0,0008.37,0002.30,0001.52
2023-11-04 23:59:00,SystemResetWarning,0832.3,5.02,000.00,027.8,023.3,000.0,036.0,028.8,12.8,0000.0,0008.47,0002.33,0001.52
